KN6ZYR Weather Reports


Display with metric or nautical units.
time (UTC)temp
F
wind
direction
speed
MPH
gust
MPH
rain 1hr
in
rain 24hr
in
rain mn
in
humidity
%
barometer
mb
20260506073519 54 345 4.0 5.0 0.00 0.00 0.00 61 1020.7
20260506073015 54 356 1.0 2.0 0.00 0.00 0.00 66 1020.6
20260506072512 54 285 3.0 5.0 0.00 0.00 0.00 66 1020.6
20260506072010 54 244 1.0 2.0 0.00 0.00 0.00 67 1020.6
20260506071508 54 270 2.0 2.0 0.00 0.00 0.00 67 1020.4
20260506071005 53 303 1.0 1.0 0.00 0.00 0.00 69 1020.1
20260506070502 53 316 2.0 2.0 0.00 0.00 0.00 71 1020.4
20260506062439 52 311 0.0 0.0 0.00 0.12 0.12 70 1020.0
20260506061935 52 355 1.0 2.0 0.00 0.12 0.12 70 1020.0
20260506061432 52 275 0.0 0.0 0.00 0.12 0.12 70 1020.1
20260506060930 52 275 0.0 0.0 0.00 0.12 0.12 69 1020.0
20260506060428 52 273 0.0 1.0 0.00 0.12 0.12 70 1020.1
20260506051400 53 263 0.0 0.0 0.00 0.12 0.12 68 1019.3
20260506050857 53 263 0.0 0.0 0.00 0.12 0.12 67 1019.6
20260506050354 53 263 2.0 2.0 0.00 0.12 0.12 68 1019.5
20260506044845 54 316 2.0 3.0 0.00 0.12 0.12 65 1019.5
20260506044343 53 244 1.0 2.0 0.00 0.12 0.12 67 1019.2
20260506043839 54 264 1.0 1.0 0.00 0.12 0.12 68 1019.1
20260506043337 54 266 1.0 1.0 0.00 0.12 0.12 68 1019.0
20260506042835 55 265 1.0 1.0 0.00 0.12 0.12 67 1019.0
20260506042334 55 269 1.0 1.0 0.00 0.12 0.12 67 1019.0
20260506041832 55 310 4.0 5.0 0.00 0.12 0.12 65 1018.5
20260506041329 55 302 3.0 3.0 0.00 0.12 0.12 64 1018.8
20260506040826 55 343 4.0 5.0 0.00 0.12 0.12 63 1018.8
20260506040323 55 344 3.0 3.0 0.00 0.12 0.12 66 1018.7
20260506035819 55 285 5.0 6.0 0.00 0.12 0.12 67 1018.4
20260506035317 55 279 1.0 2.0 0.00 0.12 0.12 65 1018.4
20260506034814 56 297 2.0 2.0 0.00 0.12 0.12 64 1018.4
20260506034311 56 275 2.0 3.0 0.00 0.12 0.12 63 1018.2
20260506033808 56 270 1.0 2.0 0.00 0.12 0.12 61 1018.0
20260506033305 56 286 4.0 5.0 0.00 0.12 0.12 62 1018.0
20260506032802 57 268 2.0 5.0 0.00 0.12 0.12 62 1018.0
20260506032259 57 304 5.0 6.0 0.00 0.12 0.12 60 1017.9
20260506031755 57 291 4.0 5.0 0.00 0.12 0.12 59 1018.0
20260506031253 57 292 6.0 8.0 0.00 0.12 0.12 57 1017.6
20260506030751 58 293 5.0 6.0 0.00 0.12 0.12 55 1017.6
20260506030248 58 289 3.0 3.0 0.00 0.12 0.12 54 1017.4
20260506025745 59 318 3.0 3.0 0.00 0.12 0.12 53 1017.2
20260506025241 59 327 3.0 3.0 0.00 0.12 0.12 53 1017.3
20260506024738 59 331 3.0 3.0 0.00 0.12 0.12 51 1017.2
20260506024235 60 279 3.0 5.0 0.00 0.12 0.12 50 1017.2
20260506023731 60 303 2.0 2.0 0.00 0.12 0.12 50 1017.1
20260506023228 60 301 1.0 2.0 0.00 0.12 0.12 49 1016.8
20260506022725 60 322 3.0 5.0 0.00 0.12 0.12 49 1016.7
20260506022223 61 309 5.0 7.0 0.00 0.12 0.12 48 1017.0
20260506021721 61 304 1.0 2.0 0.00 0.12 0.12 46 1016.7
20260506021218 61 2 5.0 7.0 0.00 0.12 0.12 44 1016.8
20260506020714 61 251 2.0 2.0 0.00 0.12 0.12 46 1016.8
20260506020212 61 350 3.0 3.0 0.00 0.12 0.12 45 1016.6
20260506015709 61 327 4.0 5.0 0.00 0.12 0.12 44 1017.0
20260506015207 61 296 7.0 9.0 0.00 0.12 0.12 43 1016.7
20260506014704 62 346 8.0 10.0 0.00 0.12 0.12 42 1016.7
20260506014159 62 340 5.0 8.0 0.00 0.12 0.12 40 1016.6
20260506013657 62 256 6.0 8.0 0.00 0.12 0.12 40 1016.7
20260506013154 63 9 9.0 11.0 0.00 0.12 0.12 39 1016.7
20260506012650 63 1 10.0 11.0 0.00 0.12 0.12 38 1016.4
20260506012147 63 2 5.0 7.0 0.00 0.12 0.12 38 1016.3
20260506011639 63 26 6.0 8.0 0.00 0.12 0.12 39 1016.3
20260506011136 64 302 7.0 13.0 0.00 0.12 0.12 38 1016.4
20260506010635 64 27 8.0 13.0 0.00 0.12 0.12 38 1016.3
20260506010131 64 317 7.0 8.0 0.00 0.12 0.12 38 1016.2
20260506005628 65 14 5.0 8.0 0.00 0.12 0.12 37 1016.0
20260506005124 65 359 8.0 9.0 0.00 0.12 0.12 36 1016.0
20260506004621 65 52 8.0 10.0 0.00 0.12 0.12 36 1015.9
20260506004118 65 345 5.0 8.0 0.00 0.12 0.12 36 1016.0
20260506003614 65 333 5.0 7.0 0.00 0.12 0.12 36 1016.0
20260506003110 65 26 8.0 10.0 0.00 0.12 0.12 37 1015.8
20260506002606 66 352 5.0 7.0 0.00 0.12 0.12 36 1015.8
20260506002102 67 17 6.0 7.0 0.00 0.12 0.12 36 1015.7
20260506001559 67 309 3.0 5.0 0.00 0.12 0.12 35 1015.7
20260506001056 67 264 1.0 1.0 0.00 0.12 0.12 32 1015.6
20260506000553 67 293 4.0 5.0 0.00 0.12 0.12 32 1015.7
20260506000051 67 266 3.0 3.0 0.00 0.12 0.12 32 1015.7
20260505235548 67 0 2.0 2.0 0.00 0.12 0.12 32 1015.6
20260505235045 68 295 5.0 6.0 0.00 0.12 0.12 31 1015.5
20260505234542 67 243 2.0 2.0 0.00 0.12 0.12 31 1015.1
20260505234039 67 26 2.0 3.0 0.00 0.12 0.12 31 1015.4
20260505233536 68 19 1.0 2.0 0.00 0.12 0.12 31 1015.5
20260505233034 67 111 0.0 0.0 0.00 0.12 0.12 36 1015.6
20260505232531 68 107 0.0 1.0 0.00 0.12 0.12 35 1015.7
20260505232029 67 327 0.0 1.0 0.00 0.12 0.12 34 1015.4
20260505231525 66 206 3.0 3.0 0.00 0.12 0.12 36 1015.8
20260505231024 67 227 2.0 2.0 0.00 0.12 0.12 37 1015.6
20260505230521 68 249 1.0 2.0 0.00 0.12 0.12 36 1016.0
20260505230018 68 250 2.0 2.0 0.00 0.12 0.12 34 1015.8
20260505225514 67 311 0.0 1.0 0.00 0.12 0.12 35 1015.7
20260505225010 67 27 3.0 5.0 0.00 0.12 0.12 36 1015.9
20260505224508 67 280 1.0 3.0 0.00 0.12 0.12 39 1015.9
20260505224005 65 152 1.0 2.0 0.00 0.12 0.12 39 1016.2
20260505223502 66 82 1.0 2.0 0.00 0.12 0.12 36 1015.9
20260505222958 66 308 2.0 2.0 0.00 0.12 0.12 39 1016.3
20260505222455 65 90 1.0 2.0 0.00 0.12 0.12 39 1016.3
20260505221950 66 340 1.0 2.0 0.00 0.12 0.12 41 1016.2
20260505221448 67 202 0.0 0.0 0.00 0.12 0.12 44 1016.4
20260505220945 65 143 5.0 6.0 0.00 0.12 0.12 39 1016.3
20260505220441 64 216 1.0 1.0 0.00 0.12 0.12 38 1016.4
20260505215939 64 319 5.0 6.0 0.00 0.12 0.12 42 1016.5
20260505215437 66 216 0.0 1.0 0.00 0.12 0.12 40 1016.4
20260505214935 65 216 1.0 1.0 0.00 0.12 0.12 42 1016.6
20260505214432 65 192 0.0 1.0 0.00 0.12 0.12 43 1016.5
20260505213929 64 172 1.0 2.0 0.00 0.12 0.12 44 1016.7
20260505213427 64 227 2.0 2.0 0.00 0.12 0.12 45 1016.8
20260505212923 64 248 2.0 3.0 0.00 0.12 0.12 46 1016.8
20260505212420 63 27 3.0 3.0 0.00 0.12 0.12 46 1016.7
20260505211916 62 315 4.0 5.0 0.00 0.12 0.12 44 1017.0
20260505211414 63 118 1.0 2.0 0.00 0.12 0.12 45 1017.2
20260505210910 62 142 3.0 3.0 0.00 0.12 0.12 45 1016.8
20260505210408 63 185 1.0 1.0 0.00 0.12 0.12 45 1017.1
20260505205904 63 196 0.0 1.0 0.00 0.12 0.12 44 1016.8
20260505205403 62 178 2.0 2.0 0.00 0.12 0.12 49 1017.1
20260505204859 62 234 4.0 5.0 0.00 0.12 0.12 43 1017.2
20260505204357 63 239 4.0 5.0 0.00 0.12 0.12 46 1017.1
20260505203854 62 196 2.0 3.0 0.00 0.12 0.12 46 1017.2
20260505203350 64 205 4.0 6.0 0.00 0.12 0.12 45 1017.2
20260505202847 63 196 1.0 1.0 0.00 0.12 0.12 52 1017.0
20260505202343 62 266 0.0 1.0 0.00 0.12 0.12 57 1017.0
20260505201840 63 58 3.0 3.0 0.00 0.12 0.12 46 1017.1
20260505201337 62 185 0.0 0.0 0.00 0.12 0.12 56 1017.1
20260505200836 60 25 2.0 2.0 0.00 0.12 0.12 51 1017.3
20260505200332 60 31 1.0 1.0 0.00 0.12 0.12 51 1017.3
20260505195827 62 8 3.0 3.0 0.00 0.12 0.12 54 1017.5
20260505195325 61 174 2.0 2.0 0.00 0.12 0.12 52 1017.9
20260505194822 60 221 1.0 2.0 0.00 0.12 0.12 50 1017.7
20260505194319 59 330 3.0 5.0 0.00 0.12 0.12 54 1017.6
20260505193814 60 74 0.0 1.0 0.00 0.12 0.12 55 1017.5
20260505193312 59 355 1.0 2.0 0.00 0.12 0.12 55 1017.6
20260505192810 60 73 0.0 0.0 0.00 0.12 0.12 57 1017.7
20260505192310 60 124 2.0 3.0 0.00 0.12 0.12 55 1018.0
20260505191806 58 16 1.0 1.0 0.00 0.12 0.12 54 1017.7
20260505191304 58 22 2.0 2.0 0.00 0.12 0.12 57 1017.6
20260505190800 59 96 2.0 2.0 0.00 0.12 0.12 54 1017.5
20260505190255 59 110 1.0 2.0 0.00 0.12 0.12 54 1017.6
20260505185752 59 144 2.0 3.0 0.00 0.12 0.12 53 1017.9
20260505185248 57 143 1.0 1.0 0.00 0.12 0.12 56 1018.0
20260505184744 58 111 1.0 2.0 0.00 0.12 0.12 58 1017.9
20260505184242 57 116 0.0 0.0 0.00 0.12 0.12 57 1017.7
20260505183738 56 104 2.0 3.0 0.00 0.12 0.12 59 1017.4
20260505183236 56 86 2.0 2.0 0.00 0.12 0.12 56 1017.7
20260505182732 57 121 0.0 1.0 0.00 0.12 0.12 55 1017.9
20260505182229 56 3 2.0 2.0 0.00 0.12 0.12 62 1017.6
20260505181725 57 108 1.0 1.0 0.00 0.12 0.12 59 1017.6
20260505181223 57 119 1.0 1.0 0.00 0.12 0.12 60 1017.4
20260505180719 56 105 3.0 3.0 0.00 0.12 0.12 60 1017.5
20260505180216 57 126 1.0 1.0 0.00 0.12 0.12 57 1017.5
20260505175712 57 162 1.0 2.0 0.00 0.12 0.12 60 1017.3
20260505175209 56 197 0.0 0.0 0.00 0.12 0.12 57 1017.3
20260505174705 56 207 0.0 0.0 0.00 0.12 0.12 55 1017.1
20260505174202 54 73 1.0 2.0 0.00 0.12 0.12 58 1017.3
20260505173658 55 75 0.0 0.0 0.00 0.12 0.12 61 1017.1
20260505173155 54 81 1.0 1.0 0.00 0.12 0.12 64 1017.1
20260505172653 54 57 0.0 0.0 0.00 0.12 0.12 63 1017.2
20260505172149 53 13 3.0 3.0 0.00 0.12 0.12 63 1017.3
20260505171649 54 19 3.0 5.0 0.00 0.12 0.12 65 1017.2
20260505171146 55 35 3.0 5.0 0.00 0.12 0.12 64 1017.1
20260505170644 54 306 0.0 0.0 0.00 0.12 0.12 65 1017.1
20260505170141 53 249 0.0 0.0 0.00 0.12 0.12 63 1017.2
20260505165640 52 251 0.0 0.0 0.00 0.12 0.12 62 1017.1
20260505165137 51 251 0.0 0.0 0.00 0.12 0.12 65 1017.0
20260505164632 51 296 2.0 2.0 0.00 0.12 0.12 68 1016.8
20260505164130 51 265 1.0 1.0 0.00 0.12 0.12 71 1017.0
20260505163628 51 295 3.0 3.0 0.00 0.12 0.12 71 1016.8
20260505163126 50 267 2.0 3.0 0.00 0.12 0.12 70 1017.0
20260505162623 50 330 2.0 5.0 0.00 0.12 0.12 73 1016.8
20260505162120 50 327 3.0 3.0 0.00 0.12 0.12 72 1016.7
20260505161617 50 338 0.0 1.0 0.00 0.12 0.12 74 1016.7
20260505161115 50 16 2.0 5.0 0.00 0.12 0.12 74 1016.6
20260505160612 50 331 3.0 3.0 0.00 0.12 0.12 73 1016.4
20260505160109 50 359 3.0 5.0 0.00 0.12 0.12 74 1016.8
20260505153049 49 303 4.0 5.0 0.00 0.12 0.12 77 1016.6
20260505152546 49 327 4.0 5.0 0.00 0.12 0.12 79 1016.2
20260505152041 48 320 3.0 3.0 0.00 0.12 0.12 79 1016.4
20260505151536 48 316 2.0 2.0 0.00 0.12 0.12 80 1016.3
20260505151034 48 293 2.0 3.0 0.00 0.12 0.12 79 1016.4
20260505150531 48 350 3.0 3.0 0.00 0.12 0.12 78 1015.8
20260505140455 46 289 2.0 3.0 0.00 0.12 0.12 88 1015.8
20260505124909 45 339 3.0 6.0 0.07 0.10 0.10 89 1015.0
20260505124406 45 37 0.0 0.0 0.00 0.09 0.09 92 1015.1
20260505123902 45 284 3.0 3.0 0.00 0.09 0.09 92 1015.4
20260505123359 45 239 1.0 2.0 0.00 0.09 0.09 92 1015.1
20260505122854 45 265 2.0 3.0 0.00 0.09 0.09 93 1015.1
20260505122352 45 186 0.0 0.0 0.00 0.09 0.09 93 1015.3
20260505121849 45 187 0.0 0.0 0.00 0.09 0.09 93 1015.1
20260505121346 45 187 0.0 0.0 0.00 0.09 0.09 93 1015.0
20260505120842 44 187 0.0 0.0 0.00 0.09 0.09 92 1015.1
20260505120338 45 187 0.0 0.0 0.00 0.09 0.09 92 1014.9
20260505115837 44 187 0.0 0.0 0.00 0.09 0.09 92 1014.9
20260505115334 45 187 0.0 0.0 0.00 0.09 0.09 92 1015.1
20260505114832 44 187 0.0 0.0 0.00 0.09 0.09 92 1015.4
20260505114328 45 188 0.0 0.0 0.00 0.09 0.09 92 1015.3
20260505113825 45 188 0.0 0.0 0.00 0.09 0.09 91 1015.1
20260505113322 45 187 0.0 0.0 0.00 0.09 0.09 91 1015.3
20260505112817 44 187 0.0 0.0 0.00 0.09 0.09 90 1015.4
20260505112315 44 143 0.0 0.0 0.00 0.09 0.09 90 1015.1
20260505111810 44 186 0.0 0.0 0.00 0.09 0.09 90 1015.1
20260505111306 44 186 0.0 0.0 0.00 0.09 0.09 90 1015.3
20260505110802 44 243 0.0 1.0 0.00 0.09 0.09 90 1015.1
20260505110300 45 243 0.0 0.0 0.00 0.09 0.09 89 1015.3
20260505101734 45 290 3.0 5.0 0.00 0.09 0.09 89 1015.1
20260505101230 45 288 4.0 6.0 0.00 0.09 0.09 89 1015.0
20260505100727 45 341 3.0 5.0 0.00 0.09 0.09 89 1014.9
20260505100224 45 355 1.0 2.0 0.00 0.09 0.09 89 1014.9
20260505095724 45 353 4.0 5.0 0.00 0.09 0.09 89 1014.8
20260505095222 44 339 2.0 3.0 0.00 0.09 0.09 89 1014.9
20260505094717 44 24 3.0 6.0 0.00 0.09 0.09 89 1015.3
20260505094214 44 334 5.0 6.0 0.00 0.09 0.09 89 1015.4
20260505093710 44 293 5.0 7.0 0.07 0.09 0.09 90 1015.4
20260505093208 44 335 8.0 10.0 0.07 0.09 0.09 91 1015.4
20260505092704 44 314 3.0 3.0 0.00 0.08 0.08 91 1015.7
20260505092203 45 322 3.0 5.0 0.00 0.08 0.08 91 1015.4
20260505091700 44 3 3.0 3.0 0.00 0.08 0.08 91 1015.6
20260505091158 45 17 1.0 2.0 0.00 0.08 0.08 92 1015.7
20260505090656 45 326 3.0 3.0 0.00 0.08 0.08 92 1016.0
20260505090154 45 328 3.0 3.0 0.00 0.08 0.08 92 1016.0
20260505085650 45 340 2.0 2.0 0.00 0.08 0.08 92 1016.3
20260505085149 45 301 2.0 3.0 0.00 0.08 0.08 92 1016.3
20260505084646 45 306 3.0 3.0 0.00 0.08 0.08 92 1016.3
20260505084144 45 317 1.0 1.0 0.00 0.08 0.08 91 1016.3
20260505083641 45 335 1.0 2.0 0.05 0.08 0.08 91 1016.5
20260505083137 45 264 0.0 1.0 0.05 0.08 0.08 90 1016.5
20260505082634 45 23 2.0 3.0 0.00 0.07 0.07 89 1016.5
20260505082131 45 107 0.0 0.0 0.07 0.07 0.07 88 1016.7
20260505081627 45 116 1.0 1.0 0.07 0.07 0.07 87 1016.6
20260505081125 45 124 1.0 1.0 0.00 0.06 0.06 88 1016.7
20260505080621 45 99 0.0 0.0 0.00 0.06 0.06 88 1016.8